| time (UTC) | temp C | wind direction | speed KPH | gust KPH | rain 1hr cm | rain 24hr cm | rain mn cm | humidity % | barometer mb |
| 20260507101038 | 15 | 33 | 4.8 | 14.5 | 0.00 | 0.13 | 0.00 | 83 | 1013.8 |
| 20260507100535 | 15 | 9 | 4.8 | 14.5 | 0.00 | 0.13 | 0.00 | 83 | 1014.0 |
| 20260507100047 | 15 | 294 | 3.2 | 14.5 | 0.00 | 0.13 | 0.00 | 84 | 1013.9 |
| 20260507095536 | 15 | 331 | 3.2 | 11.3 | 0.00 | 0.13 | 0.00 | 84 | 1013.7 |
| 20260507095034 | 15 | 272 | 3.2 | 17.7 | 0.00 | 0.13 | 0.00 | 84 | 1013.6 |
| 20260507094547 | 15 | 63 | 4.8 | 17.7 | 0.00 | 0.13 | 0.00 | 84 | 1013.7 |
| 20260507094037 | 15 | 331 | 8.0 | 16.1 | 0.00 | 0.13 | 0.00 | 85 | 1013.7 |
| 20260507093537 | 15 | 338 | 4.8 | 14.5 | 0.00 | 0.13 | 0.00 | 85 | 1013.5 |
| 20260507093055 | 15 | 86 | 3.2 | 14.5 | 0.00 | 0.13 | 0.00 | 86 | 1013.5 |
| 20260507092537 | 16 | 348 | 4.8 | 14.5 | 0.00 | 0.13 | 0.00 | 86 | 1013.8 |
| 20260507092036 | 16 | 300 | 4.8 | 14.5 | 0.00 | 0.13 | 0.00 | 86 | 1013.5 |
| 20260507091551 | 16 | 282 | 4.8 | 14.5 | 0.00 | 0.13 | 0.00 | 87 | 1013.3 |
| 20260507091035 | 16 | 9 | 3.2 | 12.9 | 0.00 | 0.13 | 0.00 | 87 | 1013.2 |
| 20260507090535 | 16 | 331 | 4.8 | 16.1 | 0.00 | 0.13 | 0.00 | 87 | 1013.3 |
| 20260507090046 | 16 | 343 | 4.8 | 16.1 | 0.00 | 0.13 | 0.00 | 87 | 1012.9 |
| 20260507085534 | 16 | 298 | 4.8 | 14.5 | 0.00 | 0.13 | 0.00 | 87 | 1013.1 |
| 20260507085042 | 16 | 343 | 3.2 | 16.1 | 0.00 | 0.13 | 0.00 | 87 | 1013.1 |
| 20260507084547 | 16 | 303 | 3.2 | 19.3 | 0.00 | 0.13 | 0.00 | 87 | 1013.1 |
| 20260507084034 | 16 | 267 | 6.4 | 19.3 | 0.00 | 0.13 | 0.00 | 86 | 1013.1 |
| 20260507083537 | 16 | 277 | 8.0 | 20.9 | 0.00 | 0.13 | 0.00 | 86 | 1013.0 |
| 20260507083049 | 16 | 294 | 6.4 | 20.9 | 0.00 | 0.13 | 0.00 | 86 | 1013.0 |
| 20260507082535 | 17 | 36 | 4.8 | 20.9 | 0.00 | 0.13 | 0.00 | 86 | 1013.2 |
| 20260507082038 | 17 | 331 | 6.4 | 25.7 | 0.00 | 0.13 | 0.00 | 86 | 1013.1 |
| 20260507081543 | 17 | 301 | 6.4 | 25.7 | 0.00 | 0.13 | 0.00 | 86 | 1013.1 |
| 20260507081037 | 18 | 301 | 4.8 | 16.1 | 0.00 | 0.13 | 0.00 | 87 | 1013.2 |
| 20260507080534 | 18 | 313 | 4.8 | 16.1 | 0.00 | 0.13 | 0.00 | 86 | 1013.2 |
| 20260507080050 | 18 | 57 | 6.4 | 16.1 | 0.00 | 0.13 | 0.00 | 87 | 1013.0 |
| 20260507075535 | 19 | 0 | 1.6 | 11.3 | 0.00 | 0.13 | 0.00 | 89 | 1012.8 |
| 20260507075038 | 19 | 316 | 6.4 | 11.3 | 0.00 | 0.13 | 0.00 | 89 | 1012.8 |
| 20260507074550 | 19 | 306 | 4.8 | 11.3 | 0.00 | 0.13 | 0.00 | 89 | 1012.6 |
| 20260507074038 | 19 | 286 | 1.6 | 9.7 | 0.00 | 0.13 | 0.00 | 89 | 1012.5 |
| 20260507073538 | 19 | 310 | 1.6 | 9.7 | 0.00 | 0.13 | 0.00 | 89 | 1012.4 |
| 20260507073049 | 19 | 0 | 1.6 | 9.7 | 0.00 | 0.13 | 0.00 | 89 | 1012.2 |
| 20260507072540 | 19 | 302 | 4.8 | 11.3 | 0.00 | 0.13 | 0.00 | 89 | 1011.9 |
| 20260507072040 | 19 | 304 | 3.2 | 11.3 | 0.00 | 0.13 | 0.00 | 89 | 1011.8 |
| 20260507071551 | 19 | 310 | 3.2 | 6.4 | 0.00 | 0.13 | 0.00 | 88 | 1011.8 |
| 20260507071037 | 19 | 288 | 1.6 | 6.4 | 0.00 | 0.13 | 0.00 | 88 | 1011.8 |
| 20260507070537 | 19 | 0 | 0.0 | 0.0 | 0.00 | 0.13 | 0.00 | 88 | 1011.6 |
| 20260507070046 | 19 | 0 | 0.0 | 0.0 | 0.00 | 0.13 | 0.00 | 87 | 1011.4 |
| 20260507065540 | 19 | 0 | 0.0 | 0.0 | 0.00 | 0.13 | 0.00 | 87 | 1011.5 |
| 20260507065037 | 19 | 0 | 0.0 | 0.0 | 0.00 | 0.13 | 0.00 | 87 | 1011.5 |
| 20260507064544 | 20 | 0 | 0.0 | 0.0 | 0.00 | 0.13 | 0.00 | 87 | 1011.4 |
| 20260507064035 | 20 | 0 | 0.0 | 0.0 | 0.00 | 0.13 | 0.00 | 87 | 1011.4 |
| 20260507063536 | 20 | 0 | 0.0 | 0.0 | 0.00 | 0.13 | 0.00 | 87 | 1011.3 |
| 20260507063048 | 20 | 0 | 0.0 | 0.0 | 0.00 | 0.13 | 0.00 | 86 | 1011.5 |
| 20260507062537 | 20 | 0 | 0.0 | 0.0 | 0.00 | 0.13 | 0.00 | 86 | 1011.5 |
| 20260507062036 | 20 | 0 | 0.0 | 0.0 | 0.00 | 0.13 | 0.00 | 86 | 1011.3 |
| 20260507061546 | 20 | 0 | 0.0 | 0.0 | 0.00 | 0.13 | 0.00 | 85 | 1011.4 |
| 20260507061036 | 20 | 0 | 0.0 | 0.0 | 0.00 | 0.13 | 0.00 | 85 | 1011.4 |
| 20260507060534 | 20 | 0 | 0.0 | 0.0 | 0.00 | 0.13 | 0.00 | 85 | 1011.5 |
| 20260507060050 | 20 | 0 | 0.0 | 0.0 | 0.00 | 0.13 | 0.00 | 85 | 1011.7 |
| 20260507055539 | 20 | 0 | 0.0 | 4.8 | 0.00 | 0.13 | 0.00 | 85 | 1011.8 |
| 20260507055037 | 20 | 0 | 0.0 | 4.8 | 0.00 | 0.13 | 0.00 | 84 | 1011.8 |
| 20260507054549 | 20 | 0 | 1.6 | 4.8 | 0.00 | 0.13 | 0.00 | 84 | 1011.8 |
| 20260507054037 | 20 | 0 | 0.0 | 3.2 | 0.00 | 0.13 | 0.00 | 84 | 1011.9 |
| 20260507053537 | 20 | 0 | 0.0 | 3.2 | 0.00 | 0.13 | 0.00 | 84 | 1012.0 |
| 20260507053053 | 20 | 0 | 0.0 | 6.4 | 0.00 | 0.13 | 0.00 | 84 | 1012.0 |
| 20260507052537 | 20 | 0 | 0.0 | 6.4 | 0.00 | 0.13 | 0.00 | 83 | 1012.1 |
| 20260507052035 | 20 | 277 | 1.6 | 6.4 | 0.00 | 0.13 | 0.00 | 83 | 1012.1 |
| 20260507051545 | 20 | 314 | 0.0 | 6.4 | 0.00 | 0.13 | 0.00 | 83 | 1012.1 |
| 20260507051039 | 20 | 315 | 0.0 | 6.4 | 0.00 | 0.13 | 0.00 | 83 | 1012.2 |
| 20260507050539 | 20 | 0 | 1.6 | 6.4 | 0.00 | 0.13 | 0.00 | 83 | 1012.1 |
| 20260507050051 | 20 | 284 | 0.0 | 6.4 | 0.00 | 0.13 | 0.00 | 83 | 1012.3 |
| 20260507045541 | 20 | 0 | 0.0 | 8.0 | 0.00 | 0.13 | 0.00 | 83 | 1012.3 |
| 20260507045034 | 20 | 0 | 0.0 | 8.0 | 0.00 | 0.13 | 0.00 | 83 | 1012.2 |
| 20260507044557 | 20 | 303 | 1.6 | 8.0 | 0.00 | 0.13 | 0.00 | 84 | 1012.3 |
| 20260507044037 | 20 | 331 | 0.0 | 8.0 | 0.00 | 0.13 | 0.00 | 84 | 1012.5 |
| 20260507043536 | 20 | 304 | 1.6 | 9.7 | 0.00 | 0.13 | 0.00 | 84 | 1012.5 |
| 20260507043045 | 20 | 94 | 0.0 | 9.7 | 0.00 | 0.13 | 0.00 | 84 | 1012.5 |
| 20260507042538 | 20 | 0 | 1.6 | 6.4 | 0.00 | 0.13 | 0.00 | 84 | 1012.5 |
| 20260507042037 | 20 | 0 | 0.0 | 6.4 | 0.00 | 0.13 | 0.00 | 84 | 1012.4 |
| 20260507041545 | 20 | 0 | 0.0 | 6.4 | 0.00 | 0.13 | 0.00 | 84 | 1012.6 |
| 20260507041034 | 20 | 321 | 0.0 | 6.4 | 0.00 | 0.13 | 0.00 | 85 | 1012.5 |
| 20260507040541 | 20 | 284 | 1.6 | 8.0 | 0.00 | 0.13 | 0.00 | 85 | 1012.6 |
| 20260507040048 | 20 | 355 | 1.6 | 8.0 | 0.00 | 0.13 | 0.00 | 85 | 1012.4 |
| 20260507035536 | 20 | 296 | 0.0 | 8.0 | 0.00 | 0.13 | 0.13 | 85 | 1012.2 |
| 20260507035036 | 20 | 0 | 1.6 | 8.0 | 0.00 | 0.13 | 0.13 | 86 | 1012.3 |
| 20260507034545 | 20 | 0 | 0.0 | 6.4 | 0.00 | 0.13 | 0.13 | 86 | 1012.2 |
| 20260507034036 | 19 | 323 | 0.0 | 9.7 | 0.00 | 0.13 | 0.13 | 86 | 1012.3 |
| 20260507033535 | 19 | 193 | 1.6 | 9.7 | 0.00 | 0.13 | 0.13 | 87 | 1012.4 |
| 20260507033043 | 19 | 253 | 0.0 | 6.4 | 0.00 | 0.13 | 0.13 | 87 | 1012.4 |
| 20260507032535 | 19 | 142 | 0.0 | 4.8 | 0.00 | 0.13 | 0.13 | 87 | 1012.2 |
| 20260507032038 | 18 | 57 | 0.0 | 4.8 | 0.00 | 0.13 | 0.13 | 88 | 1012.2 |
| 20260507031548 | 18 | 0 | 0.0 | 4.8 | 0.00 | 0.13 | 0.13 | 88 | 1012.0 |
| 20260507031038 | 18 | 0 | 1.6 | 4.8 | 0.00 | 0.13 | 0.13 | 88 | 1012.2 |
| 20260507030538 | 18 | 134 | 0.0 | 4.8 | 0.00 | 0.13 | 0.13 | 88 | 1012.2 |
| 20260507030054 | 18 | 0 | 0.0 | 6.4 | 0.00 | 0.13 | 0.13 | 88 | 1012.2 |
| 20260507025536 | 18 | 233 | 1.6 | 6.4 | 0.00 | 0.13 | 0.13 | 88 | 1012.2 |
| 20260507025038 | 18 | 233 | 0.0 | 3.2 | 0.00 | 0.13 | 0.13 | 88 | 1012.1 |
| 20260507024552 | 18 | 0 | 0.0 | 3.2 | 0.00 | 0.13 | 0.13 | 88 | 1012.1 |
| 20260507024038 | 18 | 0 | 0.0 | 3.2 | 0.00 | 0.13 | 0.13 | 88 | 1012.5 |
| 20260507023538 | 18 | 169 | 1.6 | 3.2 | 0.00 | 0.13 | 0.13 | 88 | 1012.5 |
| 20260507023045 | 18 | 0 | 0.0 | 4.8 | 0.00 | 0.13 | 0.13 | 88 | 1012.6 |
| 20260507022536 | 18 | 169 | 0.0 | 4.8 | 0.00 | 0.13 | 0.13 | 88 | 1012.7 |
| 20260507022037 | 18 | 0 | 0.0 | 1.6 | 0.00 | 0.13 | 0.13 | 88 | 1012.6 |
| 20260507021551 | 18 | 0 | 0.0 | 3.2 | 0.00 | 0.13 | 0.13 | 88 | 1012.6 |
| 20260507021040 | 18 | 0 | 0.0 | 3.2 | 0.00 | 0.13 | 0.13 | 88 | 1012.6 |
| 20260507020537 | 18 | 0 | 0.0 | 0.0 | 0.00 | 0.13 | 0.13 | 88 | 1012.6 |
| 20260507020051 | 18 | 0 | 0.0 | 0.0 | 0.00 | 0.13 | 0.13 | 87 | 1012.5 |
| 20260507015535 | 18 | 0 | 0.0 | 4.8 | 0.00 | 0.13 | 0.13 | 87 | 1012.7 |
| 20260507015038 | 18 | 0 | 0.0 | 4.8 | 0.00 | 0.13 | 0.13 | 87 | 1012.5 |
| 20260507014550 | 18 | 201 | 0.0 | 4.8 | 0.00 | 0.13 | 0.13 | 87 | 1012.5 |
| 20260507014037 | 18 | 0 | 0.0 | 0.0 | 0.00 | 0.13 | 0.13 | 86 | 1012.4 |
| 20260507013538 | 18 | 0 | 0.0 | 0.0 | 0.00 | 0.13 | 0.13 | 85 | 1012.4 |
| 20260507013057 | 18 | 0 | 0.0 | 0.0 | 0.00 | 0.13 | 0.13 | 85 | 1012.4 |
| 20260507012537 | 18 | 0 | 0.0 | 0.0 | 0.00 | 0.13 | 0.13 | 84 | 1012.6 |
| 20260507012037 | 19 | 0 | 0.0 | 0.0 | 0.00 | 0.13 | 0.13 | 83 | 1012.7 |
| 20260507011546 | 19 | 0 | 0.0 | 0.0 | 0.00 | 0.13 | 0.13 | 83 | 1013.0 |
| 20260507011037 | 19 | 0 | 0.0 | 0.0 | 0.00 | 0.13 | 0.13 | 83 | 1012.8 |
| 20260507010533 | 19 | 0 | 0.0 | 0.0 | 0.00 | 0.13 | 0.13 | 83 | 1012.9 |
| 20260507010045 | 20 | 0 | 0.0 | 0.0 | 0.00 | 0.13 | 0.13 | 82 | 1012.7 |
| 20260507005533 | 20 | 0 | 0.0 | 0.0 | 0.00 | 0.13 | 0.13 | 81 | 1012.7 |
| 20260507005032 | 20 | 0 | 0.0 | 0.0 | 0.00 | 0.13 | 0.13 | 80 | 1012.7 |
| 20260507004542 | 20 | 0 | 0.0 | 0.0 | 0.00 | 0.13 | 0.13 | 79 | 1012.8 |
| 20260507004033 | 20 | 0 | 0.0 | 0.0 | 0.00 | 0.13 | 0.13 | 79 | 1012.7 |
| 20260507003535 | 21 | 0 | 0.0 | 0.0 | 0.00 | 0.13 | 0.13 | 78 | 1012.6 |
| 20260507003042 | 21 | 0 | 0.0 | 0.0 | 0.00 | 0.13 | 0.13 | 77 | 1012.5 |
| 20260507002533 | 21 | 0 | 0.0 | 0.0 | 0.00 | 0.13 | 0.13 | 76 | 1012.6 |
| 20260507002033 | 21 | 0 | 0.0 | 0.0 | 0.00 | 0.13 | 0.13 | 75 | 1012.6 |
| 20260507001549 | 21 | 0 | 0.0 | 0.0 | 0.00 | 0.13 | 0.13 | 75 | 1012.5 |
| 20260507001032 | 21 | 0 | 0.0 | 0.0 | 0.00 | 0.13 | 0.13 | 74 | 1012.7 |
| 20260507000536 | 22 | 0 | 0.0 | 0.0 | 0.00 | 0.13 | 0.13 | 73 | 1012.5 |
| 20260507000040 | 22 | 0 | 0.0 | 0.0 | 0.00 | 0.13 | 0.13 | 73 | 1012.7 |
| 20260506235536 | 22 | 0 | 0.0 | 1.6 | 0.00 | 0.13 | 0.13 | 73 | 1012.4 |
| 20260506235035 | 22 | 0 | 0.0 | 8.0 | 0.00 | 0.13 | 0.13 | 72 | 1012.4 |
| 20260506234541 | 22 | 0 | 0.0 | 8.0 | 0.00 | 0.13 | 0.13 | 72 | 1012.5 |
| 20260506234033 | 22 | 0 | 0.0 | 6.4 | 0.00 | 0.13 | 0.13 | 72 | 1012.2 |
| 20260506233538 | 22 | 311 | 1.6 | 6.4 | 0.00 | 0.13 | 0.13 | 71 | 1012.6 |
| 20260506233046 | 22 | 321 | 0.0 | 8.0 | 0.00 | 0.13 | 0.13 | 71 | 1012.6 |
| 20260506232534 | 22 | 0 | 0.0 | 8.0 | 0.00 | 0.13 | 0.13 | 71 | 1012.5 |
| 20260506232034 | 22 | 312 | 0.0 | 6.4 | 0.00 | 0.13 | 0.13 | 71 | 1012.5 |
| 20260506231545 | 22 | 309 | 1.6 | 14.5 | 0.00 | 0.13 | 0.13 | 71 | 1012.3 |
| 20260506231031 | 22 | 269 | 1.6 | 14.5 | 0.00 | 0.13 | 0.13 | 71 | 1012.3 |
| 20260506230531 | 22 | 294 | 1.6 | 14.5 | 0.00 | 0.13 | 0.13 | 71 | 1012.3 |
| 20260506230043 | 22 | 248 | 1.6 | 14.5 | 0.00 | 0.13 | 0.13 | 71 | 1012.3 |
| 20260506225535 | 22 | 337 | 1.6 | 19.3 | 0.00 | 0.13 | 0.13 | 71 | 1012.3 |
| 20260506225035 | 22 | 138 | 3.2 | 19.3 | 0.00 | 0.13 | 0.13 | 70 | 1012.3 |
| 20260506224601 | 22 | 0 | 3.2 | 19.3 | 0.00 | 0.13 | 0.13 | 70 | 1012.1 |
| 20260506224037 | 22 | 129 | 4.8 | 12.9 | 0.00 | 0.13 | 0.13 | 70 | 1012.1 |
| 20260506223534 | 22 | 59 | 4.8 | 12.9 | 0.00 | 0.13 | 0.13 | 71 | 1012.2 |
| 20260506223038 | 22 | 272 | 1.6 | 12.9 | 0.00 | 0.13 | 0.13 | 71 | 1012.1 |
| 20260506222537 | 22 | 119 | 3.2 | 14.5 | 0.00 | 0.13 | 0.13 | 71 | 1012.2 |
| 20260506222034 | 22 | 124 | 6.4 | 19.3 | 0.00 | 0.13 | 0.13 | 72 | 1012.2 |
| 20260506221547 | 22 | 165 | 4.8 | 19.3 | 0.00 | 0.13 | 0.13 | 72 | 1012.4 |
| 20260506221035 | 22 | 275 | 4.8 | 11.3 | 0.00 | 0.13 | 0.13 | 73 | 1012.4 |
| 20260506220532 | 22 | 65 | 3.2 | 11.3 | 0.00 | 0.13 | 0.13 | 73 | 1012.4 |
| 20260506220046 | 22 | 258 | 1.6 | 11.3 | 0.00 | 0.13 | 0.13 | 73 | 1012.3 |
| 20260506215536 | 22 | 319 | 3.2 | 12.9 | 0.00 | 0.13 | 0.13 | 73 | 1012.4 |
| 20260506215035 | 22 | 341 | 1.6 | 12.9 | 0.00 | 0.13 | 0.13 | 74 | 1012.5 |
| 20260506214607 | 22 | 302 | 3.2 | 12.9 | 0.00 | 0.13 | 0.13 | 74 | 1012.4 |
| 20260506214032 | 22 | 282 | 4.8 | 12.9 | 0.00 | 0.13 | 0.13 | 74 | 1012.3 |
| 20260506213531 | 22 | 280 | 3.2 | 16.1 | 0.00 | 0.13 | 0.13 | 75 | 1012.2 |
| 20260506213051 | 22 | 307 | 3.2 | 16.1 | 0.00 | 0.13 | 0.13 | 75 | 1012.1 |
| 20260506212532 | 22 | 142 | 1.6 | 12.9 | 0.00 | 0.13 | 0.13 | 76 | 1012.1 |
| 20260506212034 | 21 | 137 | 1.6 | 14.5 | 0.00 | 0.13 | 0.13 | 76 | 1012.1 |
| 20260506211539 | 21 | 126 | 4.8 | 14.5 | 0.00 | 0.13 | 0.13 | 76 | 1012.0 |
| 20260506211035 | 21 | 167 | 1.6 | 9.7 | 0.00 | 0.13 | 0.13 | 75 | 1012.2 |
| 20260506210535 | 21 | 319 | 1.6 | 9.7 | 0.00 | 0.13 | 0.13 | 75 | 1012.3 |
| 20260506210051 | 21 | 317 | 3.2 | 8.0 | 0.00 | 0.13 | 0.13 | 75 | 1012.4 |
| 20260506205532 | 21 | 0 | 1.6 | 6.4 | 0.00 | 0.13 | 0.13 | 75 | 1012.3 |
| 20260506205034 | 21 | 248 | 0.0 | 6.4 | 0.00 | 0.13 | 0.13 | 75 | 1012.2 |
| 20260506204546 | 21 | 0 | 3.2 | 6.4 | 0.00 | 0.13 | 0.13 | 75 | 1012.2 |
| 20260506204032 | 21 | 311 | 3.2 | 6.4 | 0.00 | 0.13 | 0.13 | 75 | 1012.1 |
| 20260506203535 | 21 | 315 | 1.6 | 12.9 | 0.00 | 0.13 | 0.13 | 75 | 1012.0 |
| 20260506203051 | 21 | 300 | 0.0 | 12.9 | 0.00 | 0.13 | 0.13 | 75 | 1012.0 |
| 20260506202536 | 21 | 320 | 3.2 | 12.9 | 0.00 | 0.13 | 0.13 | 75 | 1011.9 |
| 20260506202032 | 21 | 303 | 0.0 | 11.3 | 0.00 | 0.13 | 0.13 | 75 | 1011.9 |
| 20260506201546 | 21 | 0 | 1.6 | 16.1 | 0.00 | 0.13 | 0.13 | 75 | 1011.8 |
| 20260506201033 | 21 | 138 | 4.8 | 16.1 | 0.00 | 0.13 | 0.13 | 75 | 1012.0 |
| 20260506200535 | 21 | 306 | 3.2 | 14.5 | 0.00 | 0.13 | 0.13 | 75 | 1012.3 |
| 20260506200043 | 21 | 310 | 4.8 | 20.9 | 0.00 | 0.13 | 0.13 | 75 | 1012.4 |
| 20260506195532 | 21 | 348 | 8.0 | 20.9 | 0.00 | 0.13 | 0.13 | 75 | 1012.6 |
| 20260506195032 | 21 | 325 | 6.4 | 16.1 | 0.00 | 0.13 | 0.13 | 75 | 1012.2 |
| 20260506194601 | 21 | 220 | 3.2 | 17.7 | 0.00 | 0.13 | 0.13 | 75 | 1011.8 |
| 20260506194035 | 21 | 0 | 8.0 | 19.3 | 0.00 | 0.13 | 0.13 | 75 | 1012.2 |
| 20260506193533 | 21 | 157 | 8.0 | 19.3 | 0.00 | 0.13 | 0.13 | 75 | 1012.0 |
| 20260506193039 | 21 | 130 | 4.8 | 16.1 | 0.00 | 0.13 | 0.13 | 76 | 1012.2 |
| 20260506192533 | 21 | 263 | 3.2 | 17.7 | 0.00 | 0.13 | 0.13 | 76 | 1012.6 |
| 20260506192035 | 21 | 113 | 3.2 | 17.7 | 0.00 | 0.13 | 0.13 | 76 | 1012.9 |
| 20260506191551 | 21 | 80 | 3.2 | 14.5 | 0.00 | 0.13 | 0.13 | 76 | 1012.5 |
| 20260506191033 | 21 | 0 | 3.2 | 11.3 | 0.00 | 0.13 | 0.13 | 77 | 1012.9 |
| 20260506190538 | 20 | 252 | 3.2 | 11.3 | 0.00 | 0.13 | 0.13 | 77 | 1013.2 |
| 20260506190045 | 20 | 317 | 4.8 | 20.9 | 0.00 | 0.13 | 0.13 | 76 | 1013.3 |
| 20260506185535 | 20 | 249 | 4.8 | 20.9 | 0.00 | 0.13 | 0.13 | 77 | 1013.3 |
| 20260506185035 | 20 | 68 | 1.6 | 17.7 | 0.00 | 0.13 | 0.13 | 78 | 1013.2 |
| 20260506184543 | 20 | 113 | 4.8 | 19.3 | 0.00 | 0.13 | 0.13 | 78 | 1013.3 |
| 20260506184035 | 20 | 99 | 6.4 | 19.3 | 0.00 | 0.13 | 0.13 | 78 | 1013.3 |
| 20260506183535 | 20 | 158 | 3.2 | 14.5 | 0.00 | 0.13 | 0.13 | 79 | 1013.1 |
| 20260506183047 | 20 | 271 | 3.2 | 14.5 | 0.00 | 0.13 | 0.13 | 80 | 1013.3 |
| 20260506182535 | 20 | 101 | 4.8 | 14.5 | 0.00 | 0.13 | 0.13 | 80 | 1013.5 |
| 20260506182035 | 20 | 67 | 3.2 | 16.1 | 0.00 | 0.13 | 0.13 | 80 | 1013.7 |
| 20260506181544 | 20 | 140 | 4.8 | 22.5 | 0.03 | 0.13 | 0.13 | 80 | 1013.7 |
| 20260506181035 | 20 | 123 | 3.2 | 22.5 | 0.03 | 0.13 | 0.13 | 80 | 1013.7 |
| 20260506180535 | 20 | 38 | 4.8 | 22.5 | 0.03 | 0.13 | 0.13 | 80 | 1013.6 |
| 20260506180051 | 20 | 340 | 3.2 | 14.5 | 0.03 | 0.13 | 0.13 | 80 | 1013.7 |
| 20260506175536 | 20 | 69 | 4.8 | 14.5 | 0.03 | 0.13 | 0.13 | 81 | 1013.7 |
| 20260506175034 | 20 | 194 | 1.6 | 14.5 | 0.03 | 0.13 | 0.13 | 81 | 1013.8 |
| 20260506174544 | 20 | 148 | 6.4 | 14.5 | 0.03 | 0.13 | 0.13 | 82 | 1013.9 |
| 20260506174032 | 20 | 157 | 3.2 | 14.5 | 0.03 | 0.13 | 0.13 | 83 | 1014.0 |
| 20260506173539 | 19 | 319 | 4.8 | 16.1 | 0.03 | 0.13 | 0.13 | 83 | 1013.9 |
| 20260506173048 | 19 | 182 | 4.8 | 17.7 | 0.03 | 0.13 | 0.13 | 84 | 1014.0 |
| 20260506172532 | 19 | 34 | 8.0 | 17.7 | 0.03 | 0.13 | 0.13 | 85 | 1013.9 |
| 20260506172036 | 19 | 111 | 4.8 | 20.9 | 0.03 | 0.13 | 0.13 | 86 | 1013.8 |
| 20260506171553 | 18 | 96 | 6.4 | 20.9 | 0.00 | 0.10 | 0.10 | 86 | 1013.8 |
| 20260506171035 | 18 | 150 | 6.4 | 22.5 | 0.00 | 0.10 | 0.10 | 86 | 1013.9 |
| 20260506170535 | 18 | 165 | 4.8 | 22.5 | 0.00 | 0.10 | 0.10 | 86 | 1014.1 |
| 20260506170052 | 18 | 158 | 8.0 | 20.9 | 0.03 | 0.10 | 0.10 | 86 | 1014.2 |
| 20260506165534 | 18 | 85 | 3.2 | 17.7 | 0.03 | 0.10 | 0.10 | 86 | 1014.4 |
| 20260506165035 | 18 | 147 | 4.8 | 17.7 | 0.05 | 0.10 | 0.10 | 87 | 1014.3 |
| 20260506164540 | 18 | 113 | 1.6 | 19.3 | 0.05 | 0.10 | 0.10 | 87 | 1014.5 |
| 20260506164034 | 18 | 130 | 4.8 | 19.3 | 0.08 | 0.10 | 0.10 | 87 | 1014.4 |
| 20260506163532 | 18 | 127 | 3.2 | 9.7 | 0.08 | 0.10 | 0.10 | 86 | 1014.6 |
| 20260506163049 | 18 | 134 | 3.2 | 9.7 | 0.08 | 0.10 | 0.10 | 86 | 1014.7 |
| 20260506162536 | 18 | 109 | 3.2 | 14.5 | 0.10 | 0.10 | 0.10 | 86 | 1014.8 |
| 20260506162033 | 18 | 134 | 3.2 | 16.1 | 0.10 | 0.10 | 0.10 | 85 | 1015.0 |
| 20260506161545 | 18 | 236 | 4.8 | 16.1 | 0.10 | 0.10 | 0.10 | 85 | 1015.0 |
| 20260506161034 | 18 | 165 | 4.8 | 14.5 | 0.10 | 0.10 | 0.10 | 84 | 1015.1 |
| 20260506160532 | 18 | 115 | 4.8 | 12.9 | 0.10 | 0.10 | 0.10 | 84 | 1015.1 |
| 20260506160047 | 18 | 280 | 4.8 | 12.9 | 0.08 | 0.08 | 0.08 | 83 | 1015.1 |
| 20260506155532 | 18 | 129 | 6.4 | 12.9 | 0.08 | 0.08 | 0.08 | 82 | 1015.3 |
| 20260506155034 | 18 | 160 | 3.2 | 12.9 | 0.05 | 0.05 | 0.05 | 81 | 1015.6 |
| 20260506154601 | 19 | 134 | 3.2 | 9.7 | 0.05 | 0.05 | 0.05 | 80 | 1015.6 |
| 20260506154032 | 19 | 254 | 1.6 | 9.7 | 0.03 | 0.03 | 0.03 | 78 | 1015.7 |
| 20260506153534 | 20 | 121 | 3.2 | 17.7 | 0.03 | 0.03 | 0.03 | 77 | 1015.8 |
| 20260506153048 | 20 | 265 | 3.2 | 20.9 | 0.03 | 0.03 | 0.03 | 76 | 1015.7 |
| 20260506152532 | 20 | 302 | 3.2 | 20.9 | 0.00 | 0.00 | 0.00 | 74 | 1015.8 |
| 20260506152036 | 20 | 199 | 6.4 | 20.9 | 0.00 | 0.00 | 0.00 | 72 | 1015.7 |
| 20260506151540 | 20 | 283 | 4.8 | 22.5 | 0.00 | 0.00 | 0.00 | 71 | 1015.8 |
| 20260506151035 | 20 | 142 | 8.0 | 22.5 | 0.00 | 0.00 | 0.00 | 70 | 1015.8 |
| 20260506150535 | 20 | 316 | 4.8 | 22.5 | 0.00 | 0.00 | 0.00 | 70 | 1015.8 |
| 20260506150052 | 20 | 0 | 4.8 | 16.1 | 0.00 | 0.00 | 0.00 | 70 | 1015.8 |
| 20260506145538 | 20 | 72 | 3.2 | 20.9 | 0.00 | 0.00 | 0.00 | 71 | 1015.7 |
| 20260506145032 | 20 | 309 | 6.4 | 20.9 | 0.00 | 0.00 | 0.00 | 70 | 1015.6 |
| 20260506144555 | 20 | 121 | 6.4 | 20.9 | 0.00 | 0.00 | 0.00 | 70 | 1015.5 |
| 20260506144033 | 20 | 155 | 4.8 | 16.1 | 0.00 | 0.00 | 0.00 | 69 | 1015.5 |
| 20260506143533 | 20 | 174 | 4.8 | 24.1 | 0.00 | 0.00 | 0.00 | 70 | 1015.5 |
| 20260506143044 | 20 | 145 | 6.4 | 24.1 | 0.00 | 0.00 | 0.00 | 69 | 1015.5 |
| 20260506142538 | 20 | 139 | 4.8 | 16.1 | 0.00 | 0.00 | 0.00 | 70 | 1015.4 |
| 20260506142035 | 20 | 138 | 6.4 | 16.1 | 0.00 | 0.00 | 0.00 | 69 | 1015.5 |
| 20260506141549 | 20 | 236 | 4.8 | 16.1 | 0.00 | 0.00 | 0.00 | 69 | 1015.3 |
| 20260506141035 | 20 | 66 | 4.8 | 16.1 | 0.00 | 0.00 | 0.00 | 68 | 1015.3 |
| 20260506140537 | 20 | 186 | 3.2 | 17.7 | 0.00 | 0.00 | 0.00 | 69 | 1015.4 |
| 20260506140058 | 20 | 341 | 3.2 | 19.3 | 0.00 | 0.00 | 0.00 | 69 | 1015.4 |
| 20260506135534 | 20 | 287 | 6.4 | 19.3 | 0.00 | 0.00 | 0.00 | 69 | 1015.2 |
| 20260506135035 | 20 | 63 | 6.4 | 19.3 | 0.00 | 0.00 | 0.00 | 69 | 1015.3 |
| 20260506134546 | 20 | 51 | 3.2 | 17.7 | 0.00 | 0.00 | 0.00 | 69 | 1015.4 |
| 20260506134035 | 20 | 346 | 8.0 | 25.7 | 0.00 | 0.00 | 0.00 | 69 | 1015.3 |
| 20260506133535 | 20 | 331 | 4.8 | 25.7 | 0.00 | 0.00 | 0.00 | 70 | 1015.3 |
| 20260506133052 | 20 | 147 | 8.0 | 22.5 | 0.00 | 0.00 | 0.00 | 70 | 1015.3 |
| 20260506132534 | 20 | 96 | 4.8 | 22.5 | 0.00 | 0.00 | 0.00 | 70 | 1015.2 |
| 20260506132037 | 20 | 105 | 8.0 | 20.9 | 0.00 | 0.00 | 0.00 | 71 | 1015.3 |
| 20260506131545 | 20 | 125 | 11.3 | 20.9 | 0.00 | 0.00 | 0.00 | 71 | 1015.2 |
| 20260506131035 | 20 | 196 | 9.7 | 29.0 | 0.00 | 0.00 | 0.00 | 72 | 1015.4 |
| 20260506130534 | 20 | 130 | 11.3 | 29.0 | 0.00 | 0.00 | 0.00 | 71 | 1015.3 |
| 20260506130045 | 20 | 288 | 6.4 | 25.7 | 0.00 | 0.00 | 0.00 | 72 | 1015.4 |
| 20260506125534 | 20 | 269 | 8.0 | 24.1 | 0.00 | 0.00 | 0.00 | 72 | 1015.4 |
| 20260506125032 | 20 | 146 | 8.0 | 20.9 | 0.00 | 0.00 | 0.00 | 73 | 1015.3 |
| 20260506124541 | 19 | 185 | 6.4 | 24.1 | 0.00 | 0.00 | 0.00 | 72 | 1015.4 |
| 20260506124036 | 19 | 174 | 6.4 | 27.4 | 0.00 | 0.00 | 0.00 | 73 | 1015.3 |
| 20260506123537 | 19 | 169 | 8.0 | 27.4 | 0.00 | 0.00 | 0.00 | 72 | 1015.4 |
| 20260506123041 | 19 | 148 | 4.8 | 17.7 | 0.00 | 0.00 | 0.00 | 72 | 1015.3 |
| 20260506122535 | 19 | 130 | 4.8 | 17.7 | 0.00 | 0.00 | 0.00 | 72 | 1015.4 |
| 20260506122031 | 19 | 161 | 6.4 | 16.1 | 0.00 | 0.00 | 0.00 | 73 | 1015.6 |
| 20260506121540 | 19 | 327 | 3.2 | 17.7 | 0.00 | 0.00 | 0.00 | 72 | 1015.6 |
| 20260506121034 | 19 | 95 | 4.8 | 17.7 | 0.00 | 0.00 | 0.00 | 72 | 1015.7 |
| 20260506120537 | 19 | 166 | 4.8 | 17.7 | 0.00 | 0.00 | 0.00 | 72 | 1015.8 |
| 20260506120049 | 19 | 180 | 6.4 | 16.1 | 0.00 | 0.00 | 0.00 | 73 | 1015.7 |
| 20260506115536 | 19 | 303 | 4.8 | 19.3 | 0.00 | 0.00 | 0.00 | 73 | 1015.6 |
| 20260506115035 | 18 | 346 | 1.6 | 19.3 | 0.00 | 0.00 | 0.00 | 73 | 1015.6 |
| 20260506114540 | 18 | 184 | 6.4 | 19.3 | 0.00 | 0.00 | 0.00 | 73 | 1015.7 |
| 20260506114032 | 18 | 128 | 4.8 | 19.3 | 0.00 | 0.00 | 0.00 | 73 | 1015.6 |
| 20260506113535 | 18 | 148 | 4.8 | 17.7 | 0.00 | 0.00 | 0.00 | 73 | 1015.5 |
| 20260506113051 | 18 | 125 | 4.8 | 17.7 | 0.00 | 0.00 | 0.00 | 73 | 1015.5 |
| 20260506112532 | 18 | 173 | 8.0 | 24.1 | 0.00 | 0.00 | 0.00 | 73 | 1015.5 |
| 20260506112035 | 18 | 159 | 11.3 | 24.1 | 0.00 | 0.00 | 0.00 | 73 | 1015.4 |
| 20260506111551 | 18 | 144 | 4.8 | 19.3 | 0.00 | 0.00 | 0.00 | 74 | 1015.2 |
| 20260506111037 | 18 | 117 | 4.8 | 19.3 | 0.00 | 0.00 | 0.00 | 73 | 1015.3 |
| 20260506110536 | 18 | 131 | 4.8 | 19.3 | 0.00 | 0.00 | 0.00 | 73 | 1015.2 |
| 20260506110046 | 18 | 143 | 4.8 | 19.3 | 0.00 | 0.00 | 0.00 | 74 | 1015.2 |
| 20260506105536 | 18 | 173 | 8.0 | 17.7 | 0.00 | 0.00 | 0.00 | 73 | 1015.3 |
| 20260506105036 | 18 | 119 | 8.0 | 17.7 | 0.00 | 0.00 | 0.00 | 73 | 1015.3 |
| 20260506104554 | 18 | 119 | 6.4 | 20.9 | 0.00 | 0.00 | 0.00 | 73 | 1015.2 |
| 20260506104036 | 18 | 171 | 6.4 | 20.9 | 0.00 | 0.00 | 0.00 | 73 | 1015.2 |
| 20260506103535 | 18 | 108 | 6.4 | 12.9 | 0.00 | 0.00 | 0.00 | 73 | 1015.3 |
| 20260506103044 | 18 | 0 | 3.2 | 22.5 | 0.00 | 0.00 | 0.00 | 73 | 1015.3 |
| 20260506102535 | 18 | 152 | 6.4 | 22.5 | 0.00 | 0.00 | 0.00 | 73 | 1015.2 |
| 20260506102035 | 18 | 143 | 6.4 | 20.9 | 0.00 | 0.00 | 0.00 | 72 | 1015.2 |
| 20260506101548 | 18 | 167 | 4.8 | 16.1 | 0.00 | 0.00 | 0.00 | 72 | 1015.3 |